Location: ???????
(55.4362°N, 38.1183°E)
Time: 19:58:03
(UTC+00:00)

M-CUBED/EXP-1 PRIME - Pass Details

Date: 07 December 2021
Orbit: 426 x 650 km, 101.7° (Epoch: 26 January)

Event Time Altitude Azimuth Distance (km) Brightness Sun altitude
Rises 15:27:57 0° 178° (S) 2,814 ? -19.7°
Reaches altitude 10° 15:30:09 10° 185° (S) 1,950 ? -20.0°
Maximum altitude 15:34:10 41° 256° (WSW) 921 ? -20.6°
Drops below altitude 10° 15:38:25 10° 327° (NNW) 2,052 ? -21.2°
Sets 15:40:47 0° 335° (NNW) 2,981 ? -21.5°
